Meath Environmental Platform

Observations for Trim Patrick St

Time AQI Temp °C Hum % Pres Pa CO μg/m³ H₂S μg/m³ NO μg/m³ NO₂ μg/m³ O₃ μg/m³ SO₂ μg/m³ PM1 μg/m³ PM2.5 μg/m³ PM10 μg/m³
Sunday 2 August 2026
11:49 2 26.7 39 69,027 0 0 1.45 6.59 71.94 7.35 3.71 9.44 10.38
11:48 2 26.6 39 69,031 0 0 1.47 6.55 73.11 6.99 4.57 10.23 11.26
11:47 2 26.6 40 69,035 0 0 1.48 15.93 77.59 8 3.71 10.97 12.07
11:46 2 26.6 39 69,069 0 0 1.5 5.17 72.5 8.33 3.71 9.45 10.39
11:45 2 26.5 40 69,057 0 0 1.49 21.01 77.58 7.72 2.86 8.63 9.5
11:44 2 26.6 41 69,067 0 0 1.54 9.83 72.35 6.9 2 6.97 7.67
11:43 2 26.5 40 69,051 0 0 1.48 13.04 76.88 6.98 3.71 9.4 10.34
11:42 2 26.5 42 69,065 0 0 1.57 8.06 72.8 6.71 2.86 8.51 9.36
11:41 2 26.4 40 69,053 0 0 1.48 10.29 72.4 6.76 3.71 9.4 10.34
11:39 2 26.3 41 69,008 0 0 1.53 14.55 90.87 8.59 2 7.75 8.53
11:38 2 26.3 40 69,037 0 0 1.52 12.27 71.64 6.7 3.71 11.76 12.93
11:37 2 26.3 40 69,043 0 0 1.54 17.97 109.59 8.37 2.86 9.38 10.31
11:36 2 26.2 42 69,027 0 0 1.58 5.93 72.1 7.53 3.71 10.07 11.08
11:34 2 26.2 43 69,002 0 0 1.61 4.19 69.36 6.55 2 7.65 8.41
11:33 2 26.2 42 69,004 0 0 1.55 3.99 69.4 6.85 2.86 9.28 10.21
11:32 2 26.2 42 69,008 0 0 1.55 5.56 70.75 6.62 3.71 10.05 11.05
11:31 2 26.1 41 69,012 0 0 1.53 9.7 73.43 6.67 2.86 9.3 10.23
11:30 2 26.1 43 69,014 0 0 1.6 8.76 71.81 6.51 2.86 8.44 9.28
11:29 2 26.1 41 68,993 0 0 1.52 6.07 72.63 6.85 2.86 8.53 9.38
11:28 2 26 43 68,989 0 0 1.62 6.83 73.11 8.14 2.86 9.2 10.12